Location: Azul
(36.7830°S, 59.8500°W)
Time: 10:57:36
(UTC-03:00)

MOZHAYETS 4 - Visible Passes

Search period start: 22 October 2021 00:00
Search period end: 01 November 2021 00:00
Orbit: 662 x 679 km, 98.2° (Epoch: 22 October)

Date Brightness Start Highest point End Pass type
(mag) Time Alt. Az. Time Alt. Az. Time Alt. Az.
22 Oct 10.5 02:43:13 10° ESE 02:44:40 11° E 02:45:11 11° E visible
22 Oct 7.8 04:17:31 10° S 04:22:06 61° WSW 04:23:23 43° NW visible
23 Oct 9.5 03:13:54 10° SE 03:17:47 26° E 03:18:31 25° ENE visible
23 Oct 8.8 04:50:52 10° SSW 04:54:46 27° WSW 04:56:45 20° WNW visible
24 Oct 8.1 03:46:08 10° SSE 03:50:45 60° E 03:51:51 46° NNE visible
24 Oct 9.7 05:25:14 10° SW 05:27:17 13° WSW 05:29:21 10° W visible
25 Oct 10.4 02:44:27 10° ESE 02:46:07 12° E 02:46:59 11° ENE visible
25 Oct 7.8 04:18:59 10° S 04:23:34 59° WSW 04:25:12 37° NW visible
26 Oct 9.4 03:15:18 10° SE 03:19:15 27° E 03:20:20 24° ENE visible
26 Oct 8.9 04:52:21 10° SSW 04:56:14 26° WSW 04:58:33 18° WNW visible
27 Oct 8.1 03:47:34 10° SSE 03:52:13 62° ENE 03:53:40 41° NNE visible
27 Oct 9.7 05:26:48 10° SW 05:28:43 12° WSW 05:30:39 10° W visible
28 Oct 10.4 02:45:43 10° ESE 02:47:36 12° E 02:48:46 11° ENE visible
28 Oct 7.9 04:20:26 10° S 04:25:01 57° WSW 04:26:59 32° NW visible
29 Oct 9.4 03:16:42 10° SE 03:20:43 28° E 03:22:06 24° NE visible
29 Oct 8.9 04:53:51 10° SSW 04:57:40 26° WSW 05:00:19 16° WNW visible
30 Oct 8.0 03:49:01 10° SSE 03:53:40 64° E 03:55:26 36° N visible
30 Oct 9.8 05:28:22 10° SW 05:30:10 12° WSW 05:31:57 10° W visible
31 Oct 10.3 02:47:00 10° ESE 02:49:04 13° E 02:50:32 11° ENE visible
31 Oct 7.9 04:21:53 10° S 04:26:28 55° WSW 04:28:45 28° NW visible
